Flag for Belarus Weather past 2 weeks in Gomel, Belarus

Now
63 °F

Low clouds.


Feels Like: 63 °F
Forecast: 52 / 72 °F
Wind: 8 mph from Northwest

Location: Gomel'

Current Time: Sep 4, 2015 at 2:43:00 AM

Latest Report: Sep 4, 2015 at 2:00 AM


Visibility: N/A

Pressure: 29.95 "Hg

Humidity: 88%

Dew point: 59 °F

Location of GomelLocation

Historic Weather in Gomel — Graph

°F

Gomel temperature yesterday

Maximum temperature yesterday: 75 °F (at 1:00 PM)
Minimum temperature yesterday: 64 °F (at 7:30 AM)
Average temperature yesterday: 70 °F

Past Weeks' High & Low Weather Summary

 TemperatureHumidityPressure
High93 °F (Sep 2, 4:00 PM)94% (Aug 26, 6:00 PM)30.39 "Hg (Aug 26, 6:00 PM)
Low46 °F (Aug 20, 6:00 AM)26% (Aug 22, 6:00 PM)29.71 "Hg (Sep 2, 4:00 PM)
Average69 °F58%30.12 "Hg
* Reported Aug 20 1:00 AM — Sep 4 1:00 AM, Gomel, Weather by CustomWeather, © 2015

Note: Actual official high and low records may vary slightly from our data, if they occured in-between our weather recording intervals... More about our weather records

Advertising

Gomel weather history for previous 24 hours

 ConditionsComfort  
Time TempWeatherWind HumidityBarometerVisibility
1:00 AM
Fri, Sep 4
63 °FMostly cloudy.8 mph88%29.95 "HgN/A
12:00 AM64 °FMostly cloudy.8 mph88%29.95 "HgN/A
11:30 PM
Thu, Sep 3
64 °FMostly cloudy.8 mph88%29.95 "HgN/A
11:00 PM64 °FMostly cloudy.8 mph88%29.92 "HgN/A
10:30 PM66 °FMostly cloudy.8 mph88%29.92 "HgN/A
10:00 PM66 °FMostly cloudy.8 mph88%29.92 "HgN/A
9:30 PM66 °FMostly cloudy.8 mph83%29.92 "HgN/A
9:00 PM66 °FMostly cloudy.8 mph83%29.92 "HgN/A
8:30 PM68 °FMostly cloudy.10 mph78%29.92 "HgN/A
8:00 PM68 °FMostly cloudy.13 mph78%29.89 "HgN/A
7:30 PM72 °FPartly sunny.8 mph69%29.89 "HgN/A
7:00 PM72 °FPartly sunny.8 mph69%29.89 "HgN/A
6:30 PM72 °FPartly sunny.10 mph69%29.89 "HgN/A
6:00 PM72 °FPartly sunny.10 mph69%29.89 "HgN/A
5:30 PM72 °FPartly sunny.8 mph69%29.89 "HgN/A
5:00 PM72 °FPartly sunny.8 mph69%29.89 "HgN/A
4:30 PM73 °FPartly sunny.8 mph65%29.89 "HgN/A
4:00 PM73 °FBroken clouds.10 mph65%29.89 "HgN/A
3:30 PM73 °FPartly sunny.13 mph65%29.89 "HgN/A
3:00 PM73 °FPartly sunny.10 mph65%29.89 "HgN/A
2:30 PM75 °FPartly sunny.13 mph61%29.89 "HgN/A
2:00 PM75 °FPartly sunny.13 mph61%29.86 "HgN/A
1:30 PM75 °FPartly sunny.10 mph61%29.86 "HgN/A
1:00 PM75 °FBroken clouds.13 mph61%29.86 "HgN/A
12:30 PM73 °FPartly sunny.10 mph65%29.86 "HgN/A
12:00 PM73 °FPartly sunny.10 mph65%29.86 "HgN/A
10:30 AM68 °FPartly sunny.8 mph78%29.86 "HgN/A
10:00 AM68 °FSunny.6 mph78%29.86 "Hg10 mi
9:30 AM66 °FBroken clouds.6 mph73%29.86 "HgN/A
9:00 AM66 °FPartly sunny.6 mph73%29.83 "HgN/A
8:30 AM64 °FPartly sunny.10 mph88%29.83 "HgN/A
7:30 AM64 °FSunny.10 mph88%29.83 "Hg10 mi
7:00 AM66 °FClear.8 mph83%29.83 "Hg10 mi
6:30 AM66 °FClear.10 mph83%29.83 "Hg10 mi
6:00 AM66 °FClear.13 mph83%29.80 "Hg10 mi
5:00 AM68 °FClear.8 mph78%29.77 "Hg10 mi
4:00 AM68 °FClear.10 mph78%29.77 "Hg10 mi
3:00 AM68 °FClear.10 mph78%29.74 "Hg5 mi
2:00 AM70 °FClear.10 mph69%29.74 "Hg4 mi
Weather by CustomWeather, © 2015

See weather overviewHow to use our weather pages